Hourly Data Report for October 20, 2013

All times are specified in Local Standard Time (LST). Add 1 hour to adjust for Daylight Saving Time where and when it is observed.

HALL BEACH A
NUNAVUT

68°46'33.000" N
81°14'33.000" W
9.10 m
2402354
71293
YUX

Download Data

Hourly Data (October 2013)
Hourly Data Report for October 20, 2013
Temp Definition
°C
Dew Point Temp Definition
°C
Rel Hum Definition
%
Wind Dir Definition
10's deg

Wind Spd Definition
km/h
Visibility Definition
km
Stn Press Definition
kPa
Hmdx Definition


Wind Chill Definition


Weather Definition


TIME
00:00 Legend Double Dagger -5.1 -6.5 90 21 18 16.1 101.74   -11 LegendNANA
01:00 Legend Double Dagger -5.3 -6.7 90 22 13 16.1 101.77   -10 LegendNANA
02:00 Legend Double Dagger -5.8 -7.0 91 22 9 16.1 101.80   -10 LegendNANA
03:00 Legend Double Dagger -6.0 -7.0 93 24 9 16.1 101.82   -10 LegendNANA
04:00 Legend Double Dagger -6.6 -7.6 93 24 9 16.1 101.81   -11 LegendNANA
05:00 Legend Double Dagger -7.9 -8.4 96 25 9 16.1 101.84   -12 LegendNANA
06:00 Legend Double Dagger -9.3 -10.2 93 25 9 8.1 101.86   -14 LegendNANA
07:00 Legend Double Dagger -10.2 -11.3 92 29 8 2.8 101.87   -15 LegendNANA
08:00 Legend Double Dagger -10.9 -11.9 92 24 5 4.8 101.90   -14 LegendNANA
09:00 Legend Double Dagger -12.0 -13.2 91 25 8 11.3 101.91   -17 LegendNANA
10:00 Legend Double Dagger -12.8 -14.2 90 33 5 16.1 101.93   -16 LegendNANA
11:00 Legend Double Dagger -12.4 -13.7 90 33 9 3.6 101.94   -18 LegendNANA
12:00 Legend Double Dagger LegendMM LegendMM LegendMM LegendMM LegendMM LegendMM LegendMM     LegendNANA
13:00 Legend Double Dagger LegendMM LegendMM LegendMM LegendMM LegendMM LegendMM LegendMM     LegendNANA
14:00 Legend Double Dagger LegendMM LegendMM LegendMM LegendMM LegendMM LegendMM LegendMM     LegendNANA
15:00 Legend Double Dagger -13.0 -14.2 91 31 13 16.1 102.01   -20 LegendNANA
16:00 Legend Double Dagger -13.2 -14.5 90 32 9 16.1 102.03   -19 LegendNANA
17:00 Legend Double Dagger -13.1 -14.4 90 31 11 16.1 102.03   -19 LegendNANA
18:00 Legend Double Dagger -11.6 -12.8 91 30 9 16.1 102.06   -17 LegendNANA
19:00 Legend Double Dagger -11.1 -12.2 92 33 4 0.8 102.09   -14 LegendNANA
20:00 Legend Double Dagger -12.3 -13.6 90 33 9 1.0 102.10   -18 LegendNANA
21:00 Legend Double Dagger -12.9 -14.3 90 2 11 4.8 102.08   -19 LegendNANA
22:00 Legend Double Dagger -5.5 -6.0 96 6 9 1.6 102.10   -10 LegendNANA
23:00 Legend Double Dagger -5.1 -5.8 95 3 11 2.0 102.08   -10 LegendNANA

Notes on Data Quality.

Legend

  • E = Estimated
  • M = Missing
  • NA = Not Available
  • ‡ = Partner data that is not subject to review by the National Climate Archives
Date modified: